,,,PA_Meas_PMT16A,,PR_Meas_QMR101_102,,RH_Meas_QMH101,,SR_Meas_QMS101,,TA_Meas_QMH101,,GenWind,,GenWind,
date,time,status,PA,status,PR,status,RH,status,SR,status,TA,status,DirAvg,status,SpdAvg,
2009-07-02, 00:00:04,VALID,1002.38,VALID,0,VALID,93.3789,VALID,0,VALID,23.742,VALID,46,VALID,0.339063,
2009-07-02, 00:01:04,VALID,1002.34,VALID,0,VALID,93.44,VALID,0,VALID,23.7225,VALID,46,VALID,0.240234,
2009-07-02, 00:02:04,VALID,1002.31,VALID,0,VALID,93.4628,VALID,0,VALID,23.742,VALID,46,VALID,0.1125,
2009-07-02, 00:03:04,VALID,1002.3,VALID,0,VALID,93.4781,VALID,0,VALID,23.742,VALID,46,VALID,0.178125,
2009-07-02, 00:04:04,VALID,1002.28,VALID,0,VALID,93.501,VALID,0,VALID,23.742,VALID,46,VALID,0.0582031,
2009-07-02, 00:05:04,VALID,1002.24,VALID,0,VALID,93.501,VALID,0,VALID,23.7207,VALID,46,VALID,0,
2009-07-02, 00:06:04,VALID,1002.2,VALID,0,VALID,93.5239,VALID,0,VALID,23.7225,VALID,46,VALID,0,
2009-07-02, 00:07:04,VALID,1002.22,VALID,0,VALID,93.5391,VALID,0,VALID,23.742,VALID,46,VALID,0,
2009-07-02, 00:08:04,VALID,1002.21,VALID,0,VALID,93.5468,VALID,0,VALID,23.7207,VALID,46,VALID,0,
2009-07-02, 00:09:04,VALID,1002.18,VALID,0,VALID,93.5926,VALID,0,VALID,23.7616,VALID,46,VALID,0,
2009-07-02, 00:10:04,VALID,1002.17,VALID,0,VALID,93.6307,VALID,0,VALID,23.7579,VALID,46,VALID,0.182812,
2009-07-02, 00:11:04,VALID,1002.17,VALID,0,VALID,93.646,VALID,0,VALID,23.7793,VALID,46,VALID,0.221875,
2009-07-02, 00:12:04,VALID,1002.18,VALID,0,VALID,93.707,VALID,0,VALID,23.7775,VALID,46,VALID,0.204297,
2009-07-02, 00:13:04,VALID,1002.15,VALID,0,VALID,93.6765,VALID,0,VALID,23.8183,VALID,46,VALID,0.203516,
2009-07-02, 00:14:04,VALID,1002.17,VALID,0,VALID,93.6307,VALID,0,VALID,23.7988,VALID,46,VALID,0.301562,
2009-07-02, 00:15:04,VALID,1002.15,VALID,0,VALID,93.6536,VALID,0,VALID,23.8183,VALID,46,VALID,0.349219,
2009-07-02, 00:16:04,VALID,1002.15,VALID,0,VALID,93.6917,VALID,0.112286,VALID,23.8165,VALID,46,VALID,0.354688,
2009-07-02, 00:17:04,VALID,1002.12,VALID,0,VALID,93.6688,VALID,0,VALID,23.8378,VALID,54,VALID,0.49375,
2009-07-02, 00:18:04,VALID,1002.12,VALID,0,VALID,93.6688,VALID,0,VALID,23.8573,VALID,94,VALID,0.64375,
2009-07-02, 00:19:04,VALID,1002.14,VALID,0,VALID,93.707,VALID,0,VALID,23.8555,VALID,96,VALID,0.559766,
2009-07-02, 00:20:04,VALID,1002.11,VALID,0,VALID,93.7528,VALID,0,VALID,23.8768,VALID,137,VALID,0.693359,
2009-07-02, 00:21:04,VALID,1002.1,VALID,0,VALID,93.7757,VALID,0,VALID,23.8945,VALID,137,VALID,0.424219,
2009-07-02, 00:22:04,VALID,1002.09,VALID,0,VALID,93.707,VALID,0,VALID,23.9159,VALID,111,VALID,0.534766,
2009-07-02, 00:23:04,VALID,1002.07,VALID,0,VALID,93.6917,VALID,0,VALID,23.8945,VALID,111,VALID,0.557813,
2009-07-02, 00:24:04,VALID,1002.07,VALID,0,VALID,93.707,VALID,0,VALID,23.914,VALID,111,VALID,0.694141,
2009-07-02, 00:25:04,VALID,1002.06,VALID,0,VALID,93.6765,VALID,0,VALID,23.9354,VALID,111,VALID,0.798828,
2009-07-02, 00:26:04,VALID,1002.03,VALID,0,VALID,93.6383,VALID,0,VALID,23.914,VALID,111,VALID,0.687109,
2009-07-02, 00:27:04,VALID,1002.05,VALID,0,VALID,93.6536,VALID,0,VALID,23.9354,VALID,111,VALID,0.664453,
2009-07-02, 00:28:04,VALID,1002.03,VALID,0,VALID,93.6688,VALID,0,VALID,23.9354,VALID,111,VALID,0.734766,
2009-07-02, 00:29:04,VALID,1002.04,VALID,0,VALID,93.6765,VALID,0,VALID,23.914,VALID,111,VALID,0.633594,
2009-07-02, 00:30:04,VALID,1002.07,VALID,0,VALID,93.6917,VALID,0,VALID,23.9354,VALID,107,VALID,0.704297,
2009-07-02, 00:31:04,VALID,1002.07,VALID,0,VALID,93.6536,VALID,0,VALID,23.9354,VALID,99,VALID,0.808594,
2009-07-02, 00:32:04,VALID,1002.08,VALID,0.5,VALID,93.6536,VALID,0,VALID,23.914,VALID,94,VALID,0.928906,
2009-07-02, 00:33:04,VALID,1002.11,VALID,0,VALID,93.6307,VALID,0,VALID,23.9159,VALID,85,VALID,0.872656,
2009-07-02, 00:34:04,VALID,1002.1,VALID,0,VALID,93.6612,VALID,0,VALID,23.8945,VALID,81,VALID,0.714453,
2009-07-02, 00:35:04,VALID,1002.12,VALID,0,VALID,93.6765,VALID,0.112286,VALID,23.9354,VALID,80,VALID,0.990625,
2009-07-02, 00:36:04,VALID,1002.13,VALID,0,VALID,93.6841,VALID,0,VALID,23.8945,VALID,74,VALID,1.01133,
2009-07-02, 00:37:04,VALID,1002.12,VALID,0,VALID,93.7451,VALID,0,VALID,23.9336,VALID,59,VALID,0.966797,
2009-07-02, 00:38:04,VALID,1002.12,VALID,0,VALID,93.6612,VALID,0,VALID,23.914,VALID,42,VALID,0.921875,
2009-07-02, 00:39:04,VALID,1002.1,VALID,0,VALID,93.562,VALID,0,VALID,23.875,VALID,32,VALID,1.1043,
2009-07-02, 00:40:04,VALID,1002.06,VALID,0,VALID,93.5239,VALID,0,VALID,23.8982,VALID,31,VALID,1.07734,
2009-07-02, 00:41:04,VALID,1002.06,VALID,0,VALID,93.5391,VALID,0,VALID,23.8591,VALID,36,VALID,1.14414,
2009-07-02, 00:42:04,VALID,1002.04,VALID,0,VALID,93.5315,VALID,0,VALID,23.8378,VALID,29,VALID,0.935938,
2009-07-02, 00:43:04,VALID,1002,VALID,0,VALID,93.5315,VALID,0,VALID,23.7988,VALID,34,VALID,1.00898,
2009-07-02, 00:44:04,VALID,1001.96,VALID,0,VALID,93.5926,VALID,0,VALID,23.8006,VALID,30,VALID,0.914844,
2009-07-02, 00:45:04,VALID,1001.95,VALID,0,VALID,93.6154,VALID,0,VALID,23.7811,VALID,28,VALID,0.520312,
2009-07-02, 00:46:04,VALID,1001.94,VALID,0,VALID,93.6307,VALID,0,VALID,23.742,VALID,28,VALID,0.550781,
2009-07-02, 00:47:04,VALID,1001.91,VALID,0,VALID,93.6688,VALID,0,VALID,23.742,VALID,28,VALID,0.770703,
2009-07-02, 00:48:04,VALID,1001.89,VALID,0,VALID,93.7299,VALID,0,VALID,23.7012,VALID,28,VALID,0.543359,
2009-07-02, 00:49:04,VALID,1001.88,VALID,0,VALID,93.7299,VALID,0,VALID,23.7225,VALID,28,VALID,0.428125,
2009-07-02, 00:50:04,VALID,1001.86,VALID,0,VALID,93.7375,VALID,0,VALID,23.703,VALID,28,VALID,0.596094,
2009-07-02, 00:51:04,VALID,1001.85,VALID,0,VALID,93.7833,VALID,0,VALID,23.703,VALID,28,VALID,0.653125,
2009-07-02, 00:52:04,VALID,1001.82,VALID,0,VALID,93.8367,VALID,0,VALID,23.6817,VALID,34,VALID,0.685156,
2009-07-02, 00:53:04,VALID,1001.81,VALID,0,VALID,93.9054,VALID,0,VALID,23.6817,VALID,41,VALID,0.841406,
2009-07-02, 00:54:04,VALID,1001.79,VALID,0,VALID,93.8977,VALID,0,VALID,23.7012,VALID,41,VALID,0.848437,
2009-07-02, 00:55:04,VALID,1001.77,VALID,0,VALID,93.9054,VALID,0,VALID,23.7012,VALID,37,VALID,0.980078,
2009-07-02, 00:56:04,VALID,1001.79,VALID,0,VALID,93.8901,VALID,0,VALID,23.7012,VALID,31,VALID,0.972266,
2009-07-02, 00:57:04,VALID,1001.76,VALID,0,VALID,93.8825,VALID,0,VALID,23.6817,VALID,34,VALID,0.879297,
2009-07-02, 00:58:04,VALID,1001.77,VALID,0,VALID,93.8901,VALID,0,VALID,23.7012,VALID,46,VALID,0.855469,
2009-07-02, 00:59:04,VALID,1001.74,VALID,0,VALID,93.8977,VALID,0,VALID,23.7012,VALID,50,VALID,0.852344,
2009-07-02, 01:00:04,VALID,1001.71,VALID,0,VALID,93.9359,VALID,0,VALID,23.742,VALID,50,VALID,0.754297,
2009-07-02, 01:01:04,VALID,1001.69,VALID,0,VALID,93.9283,VALID,0,VALID,23.7207,VALID,51,VALID,0.579687,
2009-07-02, 01:02:04,VALID,1001.69,VALID,0,VALID,93.9206,VALID,0,VALID,23.7207,VALID,50,VALID,0.566016,
2009-07-02, 01:03:04,VALID,1001.7,VALID,0,VALID,93.913,VALID,0,VALID,23.7207,VALID,50,VALID,0.481641,
2009-07-02, 01:04:04,VALID,1001.66,VALID,0,VALID,93.8977,VALID,0,VALID,23.7207,VALID,50,VALID,0.187891,
2009-07-02, 01:05:04,VALID,1001.63,VALID,0,VALID,93.8748,VALID,0,VALID,23.7207,VALID,50,VALID,0.103906,
2009-07-02, 01:06:04,VALID,1001.66,VALID,0,VALID,93.8825,VALID,0,VALID,23.6994,VALID,50,VALID,0.242188,
2009-07-02, 01:07:04,VALID,1001.6,VALID,0,VALID,93.8825,VALID,0,VALID,23.7207,VALID,50,VALID,0.309375,
2009-07-02, 01:08:04,VALID,1001.58,VALID,0,VALID,93.8748,VALID,0,VALID,23.7207,VALID,50,VALID,0.276953,
2009-07-02, 01:09:04,VALID,1001.59,VALID,0,VALID,93.8901,VALID,0,VALID,23.7207,VALID,50,VALID,0.441406,
2009-07-02, 01:10:04,VALID,1001.57,VALID,0,VALID,93.8901,VALID,0,VALID,23.7207,VALID,50,VALID,0.577344,
2009-07-02, 01:11:04,VALID,1001.53,VALID,0,VALID,93.8901,VALID,0,VALID,23.7012,VALID,50,VALID,0.596094,
2009-07-02, 01:12:04,VALID,1001.49,VALID,0,VALID,93.9054,VALID,0,VALID,23.7207,VALID,50,VALID,0.437109,
2009-07-02, 01:13:04,VALID,1001.51,VALID,0,VALID,93.8825,VALID,0,VALID,23.7402,VALID,50,VALID,0.26875,
2009-07-02, 01:14:04,VALID,1001.51,VALID,0,VALID,93.8443,VALID,0,VALID,23.7207,VALID,50,VALID,0.2125,
2009-07-02, 01:15:04,VALID,1001.5,VALID,0,VALID,93.8214,VALID,0,VALID,23.7207,VALID,50,VALID,0.18125,
2009-07-02, 01:16:04,VALID,1001.49,VALID,0,VALID,93.8291,VALID,0,VALID,23.7207,VALID,50,VALID,0.191406,
2009-07-02, 01:17:04,VALID,1001.52,VALID,0,VALID,93.8672,VALID,0,VALID,23.742,VALID,50,VALID,0.18125,
2009-07-02, 01:18:04,VALID,1001.48,VALID,0,VALID,93.852,VALID,0,VALID,23.7207,VALID,50,VALID,0.220313,
2009-07-02, 01:19:04,VALID,1001.5,VALID,0,VALID,93.8596,VALID,0,VALID,23.7402,VALID,50,VALID,0.2,
2009-07-02, 01:20:04,VALID,1001.51,VALID,0,VALID,93.852,VALID,0,VALID,23.7207,VALID,50,VALID,0.0285156,
2009-07-02, 01:21:04,VALID,1001.48,VALID,0,VALID,93.8672,VALID,0,VALID,23.742,VALID,50,VALID,0,
2009-07-02, 01:22:04,VALID,1001.51,VALID,0,VALID,93.8367,VALID,0,VALID,23.7207,VALID,50,VALID,0.00117188,
2009-07-02, 01:23:04,VALID,1001.53,VALID,0,VALID,93.8672,VALID,0,VALID,23.742,VALID,50,VALID,0.18125,
2009-07-02, 01:24:04,VALID,1001.48,VALID,0,VALID,93.8977,VALID,0,VALID,23.7402,VALID,50,VALID,0.219922,
2009-07-02, 01:25:04,VALID,1001.46,VALID,0,VALID,93.8977,VALID,0,VALID,23.7616,VALID,50,VALID,0.331641,
2009-07-02, 01:26:04,VALID,1001.44,VALID,0,VALID,93.9283,VALID,0,VALID,23.7402,VALID,37,VALID,0.551172,
2009-07-02, 01:27:04,VALID,1001.39,VALID,0,VALID,93.9969,VALID,0,VALID,23.7811,VALID,28,VALID,0.546484,
2009-07-02, 01:28:04,VALID,1001.37,VALID,0,VALID,93.9969,VALID,0,VALID,23.7793,VALID,5,VALID,0.585156,
2009-07-02, 01:29:04,VALID,1001.34,VALID,0,VALID,93.9893,VALID,0,VALID,23.8006,VALID,360,VALID,0.534375,
2009-07-02, 01:30:04,VALID,1001.34,VALID,0,VALID,93.9664,VALID,0,VALID,23.7793,VALID,360,VALID,0.520703,
2009-07-02, 01:31:04,VALID,1001.31,VALID,0,VALID,93.9206,VALID,0,VALID,23.7597,VALID,360,VALID,0.403125,
2009-07-02, 01:32:04,VALID,1001.29,VALID,0,VALID,93.9206,VALID,0,VALID,23.7793,VALID,360,VALID,0.368359,
2009-07-02, 01:33:04,VALID,1001.29,VALID,0,VALID,93.8977,VALID,0,VALID,23.7597,VALID,360,VALID,0.354688,
2009-07-02, 01:34:04,VALID,1001.27,VALID,0,VALID,93.8901,VALID,0,VALID,23.7597,VALID,360,VALID,0.217187,
2009-07-02, 01:35:04,VALID,1001.28,VALID,0,VALID,93.8901,VALID,0,VALID,23.7597,VALID,360,VALID,0.2125,
2009-07-02, 01:36:04,VALID,1001.25,VALID,0,VALID,93.8825,VALID,0,VALID,23.7402,VALID,360,VALID,0.191406,
2009-07-02, 01:37:04,VALID,1001.24,VALID,0,VALID,93.9054,VALID,0,VALID,23.7402,VALID,360,VALID,0.186328,
2009-07-02, 01:38:04,VALID,1001.23,VALID,0,VALID,93.8825,VALID,0,VALID,23.7402,VALID,360,VALID,0.240625,
2009-07-02, 01:39:04,VALID,1001.2,VALID,0,VALID,93.9054,VALID,0,VALID,23.7597,VALID,360,VALID,0.151953,
2009-07-02, 01:40:04,VALID,1001.19,VALID,0,VALID,93.8977,VALID,0,VALID,23.7597,VALID,360,VALID,0.111719,
2009-07-02, 01:41:04,VALID,1001.18,VALID,0,VALID,93.9359,VALID,0,VALID,23.7597,VALID,360,VALID,0.179688,
2009-07-02, 01:42:04,VALID,1001.17,VALID,0,VALID,93.913,VALID,0,VALID,23.7402,VALID,360,VALID,0.372656,
2009-07-02, 01:43:04,VALID,1001.13,VALID,0,VALID,93.913,VALID,0,VALID,23.7616,VALID,360,VALID,0.364844,
2009-07-02, 01:44:04,VALID,1001.13,VALID,0,VALID,93.9359,VALID,0,VALID,23.7402,VALID,360,VALID,0.394922,
2009-07-02, 01:45:04,VALID,1001.1,VALID,0,VALID,93.9435,VALID,0,VALID,23.742,VALID,360,VALID,0.325,
2009-07-02, 01:46:04,VALID,1001.07,VALID,0,VALID,93.9283,VALID,0,VALID,23.7402,VALID,360,VALID,0.338281,
2009-07-02, 01:47:04,VALID,1001.06,VALID,0,VALID,93.9511,VALID,0,VALID,23.7207,VALID,360,VALID,0.428125,
2009-07-02, 01:48:04,VALID,1001.02,VALID,0,VALID,93.9588,VALID,0,VALID,23.7207,VALID,360,VALID,0.494922,
2009-07-02, 01:49:04,VALID,1001.03,VALID,0,VALID,93.974,VALID,0,VALID,23.7207,VALID,360,VALID,0.350781,
2009-07-02, 01:50:04,VALID,1001.02,VALID,0,VALID,93.9893,VALID,0,VALID,23.7207,VALID,360,VALID,0.385938,
2009-07-02, 01:51:04,VALID,1001,VALID,0,VALID,93.9969,VALID,0,VALID,23.7402,VALID,360,VALID,0.282422,
2009-07-02, 01:52:04,VALID,1001.02,VALID,0,VALID,94.0274,VALID,0,VALID,23.7225,VALID,360,VALID,0.125391,
2009-07-02, 01:53:04,VALID,1001,VALID,0,VALID,93.9893,VALID,0,VALID,23.7207,VALID,360,VALID,0.107031,
2009-07-02, 01:54:04,VALID,1000.97,VALID,0,VALID,94.0198,VALID,0,VALID,23.742,VALID,360,VALID,0.162891,
2009-07-02, 01:55:04,VALID,1000.97,VALID,0,VALID,94.0503,VALID,0,VALID,23.7207,VALID,360,VALID,0.398438,
2009-07-02, 01:56:04,VALID,1001,VALID,0,VALID,94.0274,VALID,0,VALID,23.7207,VALID,360,VALID,0.332812,
2009-07-02, 01:57:04,VALID,1000.98,VALID,0,VALID,94.0503,VALID,0,VALID,23.7012,VALID,360,VALID,0.488281,
2009-07-02, 01:58:04,VALID,1000.97,VALID,0,VALID,94.0656,VALID,0,VALID,23.7012,VALID,360,VALID,0.478516,
2009-07-02, 01:59:04,VALID,1000.96,VALID,0,VALID,94.0503,VALID,0,VALID,23.7225,VALID,360,VALID,0.371094,
2009-07-02, 02:00:04,VALID,1000.98,VALID,0,VALID,94.0808,VALID,0,VALID,23.7207,VALID,360,VALID,0.407422,
2009-07-02, 02:01:04,VALID,1000.98,VALID,0,VALID,94.119,VALID,0,VALID,23.7207,VALID,1,VALID,0.504687,
2009-07-02, 02:02:04,VALID,1000.99,VALID,0,VALID,94.1266,VALID,0,VALID,23.7402,VALID,51,VALID,0.582812,
2009-07-02, 02:03:04,VALID,1000.99,VALID,0,VALID,94.1571,VALID,0,VALID,23.7597,VALID,51,VALID,0.649609,
2009-07-02, 02:04:04,VALID,1000.99,VALID,0,VALID,94.119,VALID,0,VALID,23.7793,VALID,51,VALID,0.444922,
2009-07-02, 02:05:04,VALID,1000.98,VALID,0,VALID,94.1343,VALID,0,VALID,23.7793,VALID,51,VALID,0.483984,
2009-07-02, 02:06:04,VALID,1000.98,VALID,0,VALID,94.1114,VALID,0,VALID,23.7793,VALID,51,VALID,0.473437,
2009-07-02, 02:07:04,VALID,1000.97,VALID,0,VALID,94.119,VALID,0,VALID,23.7988,VALID,60,VALID,0.528516,
2009-07-02, 02:08:04,VALID,1000.96,VALID,0,VALID,94.1343,VALID,0,VALID,23.7988,VALID,60,VALID,0.469922,
2009-07-02, 02:09:04,VALID,1000.93,VALID,0,VALID,94.1114,VALID,0,VALID,23.7988,VALID,60,VALID,0.313281,
2009-07-02, 02:10:04,VALID,1000.91,VALID,0,VALID,94.0732,VALID,0,VALID,23.7988,VALID,60,VALID,0.29375,
2009-07-02, 02:11:04,VALID,1000.91,VALID,0,VALID,94.0656,VALID,0,VALID,23.7793,VALID,60,VALID,0.307813,
2009-07-02, 02:12:04,VALID,1000.89,VALID,0,VALID,94.0122,VALID,0,VALID,23.7793,VALID,60,VALID,0.34375,
2009-07-02, 02:13:04,VALID,1000.91,VALID,0,VALID,93.9893,VALID,0,VALID,23.7597,VALID,60,VALID,0.380078,
2009-07-02, 02:14:04,VALID,1000.89,VALID,0,VALID,93.974,VALID,0,VALID,23.7402,VALID,60,VALID,0.392969,
2009-07-02, 02:15:04,VALID,1000.9,VALID,0,VALID,93.974,VALID,0,VALID,23.7616,VALID,60,VALID,0.251953,
2009-07-02, 02:16:04,VALID,1000.91,VALID,0,VALID,93.974,VALID,0,VALID,23.7402,VALID,67,VALID,0.394922,
2009-07-02, 02:17:04,VALID,1000.93,VALID,0,VALID,93.9893,VALID,0,VALID,23.7402,VALID,135,VALID,0.382031,
2009-07-02, 02:18:04,VALID,1000.96,VALID,0,VALID,94.0122,VALID,0,VALID,23.7597,VALID,135,VALID,0.461719,
2009-07-02, 02:19:04,VALID,1000.96,VALID,0,VALID,94.0274,VALID,0,VALID,23.7597,VALID,135,VALID,0.182812,
2009-07-02, 02:20:04,VALID,1000.96,VALID,0,VALID,93.9893,VALID,0,VALID,23.7597,VALID,135,VALID,0.403906,
2009-07-02, 02:21:04,VALID,1000.96,VALID,0,VALID,93.9359,VALID,0,VALID,23.7402,VALID,43,VALID,0.874609,
2009-07-02, 02:22:04,VALID,1000.99,VALID,0,VALID,93.8443,VALID,0,VALID,23.7207,VALID,38,VALID,1.06211,
2009-07-02, 02:23:04,VALID,1000.97,VALID,0,VALID,93.7375,VALID,0,VALID,23.6817,VALID,38,VALID,1.14219,
2009-07-02, 02:24:04,VALID,1000.98,VALID,0,VALID,93.6994,VALID,0,VALID,23.6622,VALID,37,VALID,1.05352,
2009-07-02, 02:25:04,VALID,1000.97,VALID,0,VALID,93.7299,VALID,0,VALID,23.6427,VALID,40,VALID,1.16797,
2009-07-02, 02:26:04,VALID,1000.98,VALID,0,VALID,93.7833,VALID,0,VALID,23.6427,VALID,49,VALID,1.01719,
2009-07-02, 02:27:04,VALID,1000.96,VALID,0,VALID,93.7985,VALID,0,VALID,23.6427,VALID,65,VALID,0.992578,
2009-07-02, 02:28:04,VALID,1000.97,VALID,0,VALID,93.8443,VALID,0,VALID,23.6622,VALID,65,VALID,0.830469,
2009-07-02, 02:29:04,VALID,1000.93,VALID,0,VALID,93.7833,VALID,0,VALID,23.6232,VALID,71,VALID,0.873438,
2009-07-02, 02:30:04,VALID,1000.93,VALID,0,VALID,93.7528,VALID,0,VALID,23.6427,VALID,71,VALID,0.791406,
2009-07-02, 02:31:04,VALID,1000.94,VALID,0,VALID,93.7375,VALID,0,VALID,23.6232,VALID,71,VALID,0.626953,
2009-07-02, 02:32:04,VALID,1000.96,VALID,0,VALID,93.7604,VALID,0,VALID,23.6054,VALID,71,VALID,0.665625,
2009-07-02, 02:33:04,VALID,1000.93,VALID,0,VALID,93.7757,VALID,0,VALID,23.6036,VALID,66,VALID,0.742969,
2009-07-02, 02:34:04,VALID,1000.94,VALID,0,VALID,93.7833,VALID,0,VALID,23.5841,VALID,66,VALID,0.423047,
2009-07-02, 02:35:04,VALID,1000.94,VALID,0,VALID,93.8062,VALID,0,VALID,23.5841,VALID,65,VALID,0.505859,
2009-07-02, 02:36:04,VALID,1000.94,VALID,0,VALID,93.8062,VALID,0,VALID,23.5841,VALID,61,VALID,0.751172,
2009-07-02, 02:37:04,VALID,1000.93,VALID,0,VALID,93.7146,VALID,0,VALID,23.5451,VALID,57,VALID,0.598047,
2009-07-02, 02:38:04,VALID,1000.95,VALID,0,VALID,93.6841,VALID,0,VALID,23.5256,VALID,56,VALID,0.689062,
2009-07-02, 02:39:04,VALID,1000.94,VALID,0,VALID,93.6536,VALID,0,VALID,23.4866,VALID,54,VALID,0.728125,
2009-07-02, 02:40:04,VALID,1000.92,VALID,0,VALID,93.7528,VALID,0,VALID,23.4866,VALID,53,VALID,0.861328,
2009-07-02, 02:41:04,VALID,1000.94,VALID,0,VALID,93.8214,VALID,0,VALID,23.4866,VALID,53,VALID,0.753125,
2009-07-02, 02:42:04,VALID,1000.94,VALID,0,VALID,93.8672,VALID,0,VALID,23.4866,VALID,53,VALID,0.676562,
2009-07-02, 02:43:04,VALID,1000.95,VALID,0,VALID,93.9283,VALID,0,VALID,23.4866,VALID,53,VALID,0.708594,
2009-07-02, 02:44:04,VALID,1000.95,VALID,0,VALID,94.0045,VALID,0,VALID,23.5079,VALID,53,VALID,0.709375,
2009-07-02, 02:45:04,VALID,1000.93,VALID,0,VALID,93.9511,VALID,0,VALID,23.4884,VALID,53,VALID,0.728906,
2009-07-02, 02:46:04,VALID,1000.96,VALID,0,VALID,93.9664,VALID,0,VALID,23.4884,VALID,53,VALID,0.715234,
2009-07-02, 02:47:04,VALID,1000.93,VALID,0,VALID,93.9817,VALID,0,VALID,23.4688,VALID,53,VALID,0.718359,
2009-07-02, 02:48:04,VALID,1000.92,VALID,0,VALID,93.9054,VALID,0,VALID,23.4688,VALID,53,VALID,0.628125,
2009-07-02, 02:49:04,VALID,1000.93,VALID,0,VALID,93.8138,VALID,0,VALID,23.4085,VALID,41,VALID,0.654688,
2009-07-02, 02:50:04,VALID,1000.93,VALID,0,VALID,93.8062,VALID,0,VALID,23.3695,VALID,40,VALID,0.732422,
2009-07-02, 02:51:04,VALID,1000.89,VALID,0,VALID,93.768,VALID,0,VALID,23.3518,VALID,40,VALID,0.606641,
2009-07-02, 02:52:04,VALID,1000.86,VALID,0,VALID,93.913,VALID,0,VALID,23.3323,VALID,40,VALID,0.527344,
2009-07-02, 02:53:04,VALID,1000.84,VALID,0,VALID,94.058,VALID,0,VALID,23.3713,VALID,40,VALID,0.544141,
2009-07-02, 02:54:04,VALID,1000.84,VALID,0,VALID,94.0808,VALID,0,VALID,23.3713,VALID,40,VALID,0.499609,
2009-07-02, 02:55:04,VALID,1000.83,VALID,0,VALID,94.0732,VALID,0,VALID,23.3695,VALID,40,VALID,0.569922,
2009-07-02, 02:56:04,VALID,1000.84,VALID,0,VALID,94.0808,VALID,0,VALID,23.3287,VALID,40,VALID,0.544141,
2009-07-02, 02:57:04,VALID,1000.85,VALID,0,VALID,94.0427,VALID,0,VALID,23.3305,VALID,40,VALID,0.293359,
2009-07-02, 02:58:04,VALID,1000.86,VALID,0,VALID,94.0122,VALID,0,VALID,23.311,VALID,40,VALID,0.207031,
2009-07-02, 02:59:04,VALID,1000.87,VALID,0,VALID,94.1037,VALID,0,VALID,23.311,VALID,40,VALID,0.101172,
2009-07-02, 03:00:04,VALID,1000.89,VALID,0,VALID,94.1037,VALID,0,VALID,23.311,VALID,40,VALID,0,
2009-07-02, 03:01:04,VALID,1000.88,VALID,0,VALID,94.0274,VALID,0,VALID,23.2915,VALID,40,VALID,0,
2009-07-02, 03:02:04,VALID,1000.9,VALID,0,VALID,94.058,VALID,0,VALID,23.2524,VALID,40,VALID,0,
2009-07-02, 03:03:04,VALID,1000.89,VALID,0,VALID,94.119,VALID,0,VALID,23.2719,VALID,40,VALID,0,
2009-07-02, 03:04:04,VALID,1000.89,VALID,0,VALID,94.1953,VALID,0,VALID,23.2897,VALID,40,VALID,0.0980469,
2009-07-02, 03:05:04,VALID,1000.9,VALID,0,VALID,94.2258,VALID,0,VALID,23.2897,VALID,40,VALID,0.0714844,
2009-07-02, 03:06:04,VALID,1000.87,VALID,0,VALID,94.2334,VALID,0,VALID,23.3092,VALID,40,VALID,0.292578,
2009-07-02, 03:07:04,VALID,1000.87,VALID,0,VALID,94.2258,VALID,0,VALID,23.2897,VALID,40,VALID,0.369141,
2009-07-02, 03:08:04,VALID,1000.87,VALID,0,VALID,94.1877,VALID,0,VALID,23.2915,VALID,40,VALID,0.353125,
2009-07-02, 03:09:04,VALID,1000.88,VALID,0,VALID,94.1953,VALID,0,VALID,23.2719,VALID,40,VALID,0.307422,
2009-07-02, 03:10:04,VALID,1000.85,VALID,0,VALID,94.1953,VALID,0,VALID,23.2524,VALID,40,VALID,0.239844,
2009-07-02, 03:11:04,VALID,1000.85,VALID,0,VALID,94.2334,VALID,0,VALID,23.2524,VALID,40,VALID,0.316797,
2009-07-02, 03:12:04,VALID,1000.81,VALID,0,VALID,94.3326,VALID,0,VALID,23.2915,VALID,40,VALID,0.216016,
2009-07-02, 03:13:04,VALID,1000.8,VALID,0,VALID,94.3784,VALID,0,VALID,23.3305,VALID,40,VALID,0.177344,
2009-07-02, 03:14:04,VALID,1000.79,VALID,0,VALID,94.3708,VALID,0,VALID,23.35,VALID,40,VALID,0.119922,
2009-07-02, 03:15:04,VALID,1000.79,VALID,0,VALID,94.4471,VALID,0,VALID,23.4103,VALID,157,VALID,0.540234,
2009-07-02, 03:16:04,VALID,1000.77,VALID,0,VALID,94.5081,VALID,0,VALID,23.4493,VALID,157,VALID,0.538281,
2009-07-02, 03:17:04,VALID,1000.76,VALID,0,VALID,94.4852,VALID,0,VALID,23.4671,VALID,157,VALID,0.538672,
2009-07-02, 03:18:04,VALID,1000.77,VALID,0,VALID,94.4013,VALID,0,VALID,23.4475,VALID,157,VALID,0.469531,
2009-07-02, 03:19:04,VALID,1000.76,VALID,0,VALID,94.3784,VALID,0,VALID,23.4475,VALID,157,VALID,0.394141,
2009-07-02, 03:20:04,VALID,1000.76,VALID,0,VALID,94.4242,VALID,0,VALID,23.4475,VALID,125,VALID,0.575391,
2009-07-02, 03:21:04,VALID,1000.76,VALID,0,VALID,94.4013,VALID,0,VALID,23.4688,VALID,112,VALID,0.998438,
2009-07-02, 03:22:04,VALID,1000.78,VALID,0,VALID,94.4394,VALID,0,VALID,23.4866,VALID,114,VALID,0.575,
2009-07-02, 03:23:04,VALID,1000.81,VALID,0,VALID,94.3708,VALID,0,VALID,23.4866,VALID,114,VALID,0.413281,
2009-07-02, 03:24:04,VALID,1000.81,VALID,0,VALID,94.3326,VALID,0,VALID,23.4671,VALID,136,VALID,0.429297,
2009-07-02, 03:25:04,VALID,1000.81,VALID,0,VALID,94.2411,VALID,0,VALID,23.4475,VALID,127,VALID,0.533594,
2009-07-02, 03:26:04,VALID,1000.86,VALID,0,VALID,94.1571,VALID,0,VALID,23.4085,VALID,127,VALID,0.205859,
2009-07-02, 03:27:04,VALID,1000.88,VALID,0,VALID,94.2258,VALID,0,VALID,23.4103,VALID,99,VALID,0.705469,
2009-07-02, 03:28:04,VALID,1000.87,VALID,0,VALID,94.1648,VALID,0,VALID,23.389,VALID,61,VALID,0.666406,
2009-07-02, 03:29:04,VALID,1000.93,VALID,0,VALID,94.0198,VALID,0,VALID,23.311,VALID,90,VALID,0.248047,
2009-07-02, 03:30:04,VALID,1000.95,VALID,0,VALID,93.9588,VALID,0,VALID,23.2524,VALID,90,VALID,0.414063,
2009-07-02, 03:31:04,VALID,1000.96,VALID,0,VALID,93.9893,VALID,0,VALID,23.2329,VALID,50,VALID,0.583594,
2009-07-02, 03:32:04,VALID,1000.97,VALID,0,VALID,93.9588,VALID,0,VALID,23.1939,VALID,39,VALID,0.533594,
2009-07-02, 03:33:04,VALID,1000.99,VALID,0,VALID,93.9588,VALID,0,VALID,23.1744,VALID,39,VALID,0.590234,
2009-07-02, 03:34:04,VALID,1001.01,VALID,0,VALID,94.0274,VALID,0,VALID,23.1957,VALID,39,VALID,0.615625,
2009-07-02, 03:35:04,VALID,1000.99,VALID,0,VALID,94.1266,VALID,0,VALID,23.1549,VALID,39,VALID,0.551172,
2009-07-02, 03:36:04,VALID,1000.97,VALID,0,VALID,94.1571,VALID,0,VALID,23.1566,VALID,39,VALID,0.303906,
2009-07-02, 03:37:04,VALID,1000.96,VALID,0,VALID,94.3174,VALID,0,VALID,23.1939,VALID,39,VALID,0.3875,
2009-07-02, 03:38:04,VALID,1000.98,VALID,0,VALID,94.386,VALID,0,VALID,23.2329,VALID,39,VALID,0.380078,
2009-07-02, 03:39:04,VALID,1000.96,VALID,0,VALID,94.325,VALID,0,VALID,23.2542,VALID,39,VALID,0.0898438,
2009-07-02, 03:40:04,VALID,1000.99,VALID,0,VALID,94.2792,VALID,0,VALID,23.2134,VALID,39,VALID,0.0507813,
2009-07-02, 03:41:04,VALID,1000.93,VALID,0,VALID,94.2945,VALID,0,VALID,23.2347,VALID,39,VALID,0.150781,
2009-07-02, 03:42:04,VALID,1000.96,VALID,0,VALID,94.3555,VALID,0,VALID,23.2542,VALID,39,VALID,0.179297,
2009-07-02, 03:43:04,VALID,1000.96,VALID,0,VALID,94.3479,VALID,0,VALID,23.2737,VALID,39,VALID,0,
2009-07-02, 03:44:04,VALID,1000.95,VALID,0,VALID,94.3708,VALID,0,VALID,23.2932,VALID,39,VALID,0.00195313,
2009-07-02, 03:45:04,VALID,1000.99,VALID,0,VALID,94.4394,VALID,0,VALID,23.3323,VALID,74,VALID,0.499219,
2009-07-02, 03:46:04,VALID,1000.96,VALID,0,VALID,94.4928,VALID,0,VALID,23.3908,VALID,127,VALID,0.548437,